{"data":{"norad_id":54377,"intl_designator":"2022-161A","name":"COSMOS 2564 (761)","alt_names":[],"object_type":"PAYLOAD","status":"ACTIVE","operator":null,"country":"CIS","launch_date":"2022-11-28","launch_site_code":"PLMSC","launch_vehicle":null,"mission":null,"orbit_class":"UNKNOWN","rcs_meters":null,"size_class":null,"mass_kg":null,"dimensions":null,"purposes":["nav"],"wikipedia_slug":null,"has_3d_model":false,"image_url":null,"decayed_at":null,"tle_current":{"epoch":"2026-05-24T07:24:47.530944Z","epoch_age_seconds":128702,"freshness":"FRESH","line1":"1 54377U 22161A   26144.30888346  .00000036  00000+0  00000+0 0  9992","line2":"2 54377  64.7397 193.5043 0011803 223.1851 136.7915  2.13102020 27129","mean_motion":2.1310202,"eccentricity":0.0011803,"inclination_deg":64.7397,"raan_deg":193.5043,"arg_perigee_deg":223.1851,"mean_anomaly_deg":136.7915,"bstar":0,"rev_number":2712,"period_min":675.73268427958,"perigee_km":19099.778712201,"apogee_km":19159.992950897,"semimajor_km":25508.022831549,"source":"CELESTRAK","updated_at":"2026-05-25T13:38:23.896991Z"}}}